GW4285 Weather Reports


Display with metric or nautical units.
time (UTC)temp
F
wind
direction
speed
MPH
gust
MPH
rain 1hr
in
rain 24hr
in
rain mn
in
humidity
%
barometer
mb
20260510030919 55 247 0.0 3.0 0.00 0.00 0.00 90 1013.3
20260510030415 56 245 3.0 4.0 0.00 0.00 0.00 89 1013.4
20260510025913 57 212 1.0 1.0 0.00 0.00 0.00 87 1013.2
20260510025410 57 257 0.0 1.0 0.00 0.00 0.00 86 1013.2
20260510024907 58 234 1.0 5.0 0.00 0.00 0.00 85 1013.3
20260510024403 58 218 0.0 3.0 0.00 0.00 0.00 86 1013.3
20260510023859 58 229 0.0 0.0 0.00 0.00 0.00 85 1013.3
20260510023356 59 236 2.0 4.0 0.00 0.00 0.00 84 1013.1
20260510022854 60 210 0.0 3.0 0.00 0.00 0.00 82 1013.2
20260510022353 60 241 0.0 0.0 0.00 0.00 0.00 81 1013.3
20260510021851 61 238 0.0 1.0 0.00 0.00 0.00 81 1013.2
20260510021350 61 238 3.0 4.0 0.00 0.00 0.00 80 1013.2
20260510020846 61 228 0.0 7.0 0.00 0.00 0.00 81 1013.1
20260510020346 62 256 0.0 1.0 0.00 0.00 0.00 78 1013.2
20260510015842 63 282 5.0 7.0 0.00 0.00 0.00 77 1013.1
20260510015338 63 243 0.0 3.0 0.00 0.00 0.00 77 1013.2
20260510014833 64 248 1.0 5.0 0.00 0.00 0.00 76 1013.1
20260510014331 65 271 1.0 5.0 0.00 0.00 0.00 74 1013.1
20260510013827 65 261 2.0 5.0 0.00 0.00 0.00 74 1013.3
20260510013323 64 261 2.0 5.0 0.00 0.00 0.00 74 1013.3
20260510012818 66 249 2.0 4.0 0.00 0.00 0.00 73 1013.3
20260510012318 66 248 2.0 4.0 0.00 0.00 0.00 72 1013.2
20260510011813 66 259 2.0 3.0 0.00 0.00 0.00 73 1013.2
20260510011309 66 234 3.0 5.0 0.00 0.00 0.00 74 1013.2
20260510010806 66 242 4.0 7.0 0.00 0.00 0.00 74 1013.2
20260510010303 68 296 2.0 4.0 0.00 0.00 0.00 70 1013.3
20260510005759 67 270 4.0 5.0 0.00 0.00 0.00 71 1013.4
20260510005255 67 277 1.0 4.0 0.00 0.00 0.00 71 1013.4
20260510004754 69 248 1.0 3.0 0.00 0.00 0.00 70 1013.4
20260510004250 68 283 5.0 8.0 0.00 0.00 0.00 69 1013.4
20260510003748 68 283 0.0 4.0 0.00 0.00 0.00 71 1013.5
20260510003245 69 270 2.0 5.0 0.00 0.00 0.00 69 1013.5
20260510002743 69 239 1.0 5.0 0.00 0.00 0.00 69 1013.6
20260510002241 68 81 1.0 4.0 0.00 0.00 0.00 69 1013.6
20260510001737 69 282 5.0 7.0 0.00 0.00 0.00 68 1013.7
20260510001236 70 264 5.0 5.0 0.00 0.00 0.00 66 1013.7
20260510000732 70 297 0.0 4.0 0.00 0.00 0.00 67 1013.6
20260510000229 70 271 3.0 5.0 0.00 0.00 0.00 67 1013.7
20260509235726 71 252 0.0 8.0 0.00 0.00 0.00 67 1013.8
20260509235222 71 256 3.0 4.0 0.00 0.00 0.00 64 1013.9
20260509234718 70 255 6.0 8.0 0.00 0.00 0.00 66 1013.9
20260509234215 69 277 4.0 10.0 0.00 0.00 0.00 68 1013.8
20260509233714 70 239 2.0 8.0 0.00 0.00 0.00 67 1014.0
20260509233211 68 243 1.0 7.0 0.00 0.00 0.00 69 1014.0
20260509232707 70 294 3.0 7.0 0.00 0.00 0.00 65 1014.1
20260509232204 70 231 3.0 7.0 0.00 0.00 0.00 65 1013.9
20260509231700 71 291 4.0 8.0 0.00 0.00 0.00 63 1014.0
20260509231158 70 289 3.0 5.0 0.00 0.00 0.00 68 1014.0
20260509230655 70 286 3.0 11.0 0.00 0.00 0.00 66 1014.1
20260509230152 70 294 0.0 5.0 0.00 0.00 0.00 64 1014.1
20260509225647 70 224 3.0 7.0 0.00 0.00 0.00 65 1014.1
20260509225143 71 251 2.0 5.0 0.00 0.00 0.00 64 1014.2
20260509224639 70 252 2.0 5.0 0.00 0.00 0.00 65 1014.3
20260509224136 69 277 3.0 7.0 0.00 0.00 0.00 66 1014.4
20260509223632 71 230 5.0 7.0 0.00 0.00 0.00 65 1014.5
20260509223130 70 266 4.0 7.0 0.00 0.00 0.00 63 1014.5
20260509222627 71 218 4.0 7.0 0.00 0.00 0.00 62 1014.6
20260509222122 71 239 1.0 4.0 0.00 0.00 0.00 63 1014.5
20260509221618 72 218 5.0 7.0 0.00 0.00 0.00 62 1014.6
20260509221114 72 263 5.0 8.0 0.00 0.00 0.00 61 1014.5
20260509220610 72 265 2.0 5.0 0.00 0.00 0.00 62 1014.6
20260509220107 72 250 1.0 5.0 0.00 0.00 0.00 60 1014.7
20260509215602 73 225 3.0 4.0 0.00 0.00 0.00 58 1014.8
20260509215100 72 241 7.0 8.0 0.00 0.00 0.00 61 1014.9
20260509214557 73 207 2.0 5.0 0.00 0.00 0.00 62 1014.7
20260509214053 73 261 1.0 4.0 0.00 0.00 0.00 63 1014.8
20260509213549 73 278 7.0 8.0 0.00 0.00 0.00 61 1014.9
20260509213046 73 239 1.0 7.0 0.00 0.00 0.00 63 1014.9
20260509212543 73 265 2.0 4.0 0.00 0.00 0.00 61 1015.1
20260509212040 73 272 4.0 5.0 0.00 0.00 0.00 63 1014.9
20260509211536 74 254 3.0 5.0 0.00 0.00 0.00 61 1014.9
20260509211033 74 298 0.0 7.0 0.00 0.00 0.00 62 1014.9
20260509210530 72 239 2.0 5.0 0.00 0.00 0.00 64 1015.1
20260509210026 72 271 4.0 8.0 0.00 0.00 0.00 64 1015.1
20260509205520 72 257 0.0 3.0 0.00 0.00 0.00 62 1014.9
20260509205016 74 242 0.0 5.0 0.00 0.00 0.00 61 1015.0
20260509204513 73 243 2.0 4.0 0.00 0.00 0.00 63 1015.1
20260509204009 72 268 5.0 7.0 0.00 0.00 0.00 62 1015.1
20260509203505 72 211 3.0 5.0 0.00 0.00 0.00 64 1015.0
20260509203004 74 253 3.0 7.0 0.00 0.00 0.00 61 1015.2
20260509202458 73 257 3.0 5.0 0.00 0.00 0.00 65 1015.0
20260509201954 71 254 2.0 4.0 0.00 0.00 0.00 65 1015.2
20260509201454 73 259 2.0 5.0 0.00 0.00 0.00 66 1015.1
20260509200951 73 265 3.0 10.0 0.00 0.00 0.00 66 1015.1
20260509200446 75 249 4.0 7.0 0.00 0.00 0.00 62 1015.1
20260509195943 75 235 2.0 4.0 0.00 0.00 0.00 64 1015.2
20260509195438 75 190 3.0 4.0 0.00 0.00 0.00 64 1015.3
20260509194938 75 247 3.0 7.0 0.00 0.00 0.00 59 1015.2
20260509194433 75 251 3.0 4.0 0.00 0.00 0.00 58 1015.1
20260509193931 74 258 3.0 7.0 0.00 0.00 0.00 59 1015.1
20260509193430 73 200 0.0 1.0 0.00 0.00 0.00 57 1015.2
20260509192927 73 242 3.0 5.0 0.00 0.00 0.00 57 1015.2
20260509192423 74 256 1.0 7.0 0.00 0.00 0.00 57 1015.2
20260509191918 72 247 1.0 5.0 0.00 0.00 0.00 59 1015.3
20260509191409 73 237 5.0 7.0 0.00 0.00 0.00 57 1015.2
20260509190905 73 262 1.0 1.0 0.00 0.00 0.00 56 1015.3
20260509190403 72 233 2.0 5.0 0.00 0.00 0.00 59 1015.4
20260509185900 72 256 1.0 4.0 0.00 0.00 0.00 60 1015.4
20260509185356 70 248 0.0 4.0 0.00 0.00 0.00 62 1015.6
20260509184853 72 234 0.0 1.0 0.00 0.00 0.00 60 1015.6
20260509184350 71 261 6.0 7.0 0.00 0.00 0.00 60 1015.6
20260509183847 71 252 0.0 3.0 0.00 0.00 0.00 62 1015.7
20260509183342 71 257 3.0 5.0 0.00 0.00 0.00 64 1015.5
20260509182838 70 258 5.0 8.0 0.00 0.00 0.00 63 1015.6
20260509182336 70 265 1.0 1.0 0.00 0.00 0.00 64 1015.6
20260509181833 69 311 0.0 1.0 0.00 0.00 0.00 64 1015.5
20260509181330 69 228 1.0 3.0 0.00 0.00 0.00 65 1015.6
20260509180827 67 252 0.0 3.0 0.00 0.00 0.00 69 1015.5
20260509180323 67 248 0.0 1.0 0.00 0.00 0.00 67 1015.5
20260509175820 67 250 0.0 3.0 0.00 0.00 0.00 67 1015.6
20260509175316 66 242 1.0 3.0 0.00 0.00 0.00 70 1015.6
20260509174812 67 255 1.0 3.0 0.00 0.00 0.00 70 1015.7
20260509174308 66 256 1.0 3.0 0.00 0.00 0.00 72 1015.6
20260509173804 66 250 0.0 1.0 0.00 0.00 0.00 72 1015.7
20260509173300 65 274 2.0 4.0 0.00 0.00 0.00 73 1015.6
20260509172755 65 250 0.0 1.0 0.00 0.00 0.00 74 1015.6
20260509172253 63 269 3.0 4.0 0.00 0.00 0.00 77 1015.6
20260509171748 63 335 1.0 5.0 0.00 0.00 0.00 78 1015.7
20260509171244 63 288 0.0 1.0 0.00 0.00 0.00 78 1015.6
20260509170741 62 286 4.0 5.0 0.00 0.00 0.00 79 1015.6
20260509170237 62 291 0.0 3.0 0.00 0.00 0.00 79 1015.7
20260509165736 62 291 3.0 4.0 0.00 0.00 0.00 78 1015.6
20260509165231 61 291 3.0 4.0 0.00 0.00 0.00 80 1015.6
20260509164727 62 296 0.0 0.0 0.00 0.00 0.00 78 1015.7
20260509164223 61 296 0.0 1.0 0.00 0.00 0.00 80 1015.7
20260509163721 60 296 0.0 0.0 0.00 0.00 0.00 81 1015.6
20260509163217 60 296 0.0 0.0 0.00 0.00 0.00 81 1015.6
20260509162715 60 296 0.0 0.0 0.00 0.00 0.00 82 1015.7
20260509162210 59 296 0.0 0.0 0.00 0.00 0.00 82 1015.7
20260509161705 58 295 0.0 0.0 0.00 0.00 0.00 84 1015.7
20260509161201 58 296 0.0 0.0 0.00 0.00 0.00 84 1015.8
20260509160657 58 296 0.0 0.0 0.00 0.00 0.00 83 1015.9
20260509160153 59 296 0.0 0.0 0.00 0.00 0.00 81 1015.9
20260509155649 57 296 0.0 0.0 0.00 0.00 0.00 86 1015.8
20260509155146 56 296 0.0 0.0 0.00 0.00 0.00 87 1015.9
20260509154641 56 296 0.0 0.0 0.00 0.00 0.00 87 1015.9
20260509154138 56 296 0.0 0.0 0.00 0.00 0.00 86 1015.8
20260509153636 56 296 0.0 0.0 0.00 0.00 0.00 87 1016.0
20260509153132 55 296 0.0 0.0 0.00 0.00 0.00 90 1016.0
20260509152628 54 296 0.0 0.0 0.00 0.00 0.00 91 1015.9
20260509152126 54 296 0.0 0.0 0.00 0.00 0.00 89 1015.8
20260509151622 55 298 0.0 0.0 0.00 0.00 0.00 87 1015.8
20260509151120 55 299 0.0 0.0 0.00 0.00 0.00 91 1015.8
20260509150618 53 298 0.0 0.0 0.00 0.00 0.00 96 1015.6
20260509150115 51 299 0.0 0.0 0.00 0.00 0.00 98 1015.6
20260509145611 50 299 0.0 0.0 0.00 0.00 0.00 98 1015.5
20260509145106 49 299 0.0 0.0 0.00 0.00 0.00 99 1015.6
20260509144603 49 298 0.0 0.0 0.00 0.00 0.00 99 1015.5
20260509144100 49 298 0.0 0.0 0.00 0.00 0.00 99 1015.6
20260509143557 48 298 0.0 0.0 0.00 0.00 0.00 99 1015.6
20260509143055 48 298 0.0 0.0 0.00 0.00 0.00 99 1015.5
20260509142550 48 298 0.0 0.0 0.00 0.00 0.00 98 1015.6
20260509142046 49 298 0.0 0.0 0.00 0.00 0.00 98 1015.5
20260509141543 49 298 0.0 0.0 0.00 0.00 0.00 98 1015.5
20260509141039 49 298 0.0 0.0 0.00 0.00 0.00 98 1015.4
20260509140536 49 298 0.0 0.0 0.00 0.00 0.00 98 1015.4
20260509140034 49 298 0.0 0.0 0.00 0.00 0.00 98 1015.2
20260509135531 49 327 0.0 0.0 0.00 0.00 0.00 98 1015.2
20260509135029 49 327 0.0 0.0 0.00 0.00 0.00 98 1015.2
20260509134526 49 327 0.0 0.0 0.00 0.00 0.00 98 1015.0
20260509134023 49 327 0.0 0.0 0.00 0.00 0.00 98 1015.2
20260509133520 49 328 0.0 0.0 0.00 0.00 0.00 98 1015.0
20260509133018 49 328 0.0 0.0 0.00 0.00 0.00 98 1015.1
20260509132516 48 328 0.0 0.0 0.00 0.00 0.00 98 1015.0
20260509132014 48 328 0.0 0.0 0.00 0.00 0.00 98 1015.1
20260509131510 48 328 0.0 0.0 0.00 0.00 0.00 98 1015.1
20260509131006 48 328 0.0 0.0 0.00 0.00 0.00 98 1015.1
20260509130502 48 328 0.0 0.0 0.00 0.00 0.00 98 1015.1
20260509125959 48 328 0.0 0.0 0.00 0.00 0.00 98 1015.0
20260509125455 48 328 0.0 0.0 0.00 0.00 0.00 98 1015.0
20260509124951 48 328 0.0 0.0 0.00 0.00 0.00 98 1014.9
20260509124449 48 328 0.0 0.0 0.00 0.00 0.00 98 1014.9
20260509123946 48 328 0.0 0.0 0.00 0.00 0.00 98 1014.9
20260509123443 48 328 0.0 0.0 0.00 0.00 0.00 98 1015.0
20260509122939 48 328 0.0 0.0 0.00 0.00 0.00 98 1015.0
20260509122436 48 328 0.0 0.0 0.00 0.00 0.00 98 1015.0
20260509121933 48 328 0.0 0.0 0.00 0.00 0.00 98 1014.9
20260509121430 49 328 0.0 0.0 0.00 0.00 0.00 98 1015.0
20260509120928 49 329 0.0 0.0 0.00 0.00 0.00 98 1014.9
20260509120425 49 329 0.0 0.0 0.00 0.00 0.00 98 1014.9
20260509115923 49 329 0.0 0.0 0.00 0.00 0.00 98 1015.0
20260509115420 49 329 0.0 0.0 0.00 0.00 0.00 98 1015.0
20260509114918 49 329 0.0 0.0 0.00 0.00 0.00 97 1015.0
20260509114416 49 329 0.0 0.0 0.00 0.00 0.00 97 1015.1
20260509113910 49 329 0.0 0.0 0.00 0.00 0.00 97 1015.1
20260509113407 49 329 0.0 0.0 0.00 0.00 0.00 97 1015.1
20260509112903 49 329 0.0 0.0 0.00 0.00 0.00 97 1015.2
20260509112400 49 329 0.0 0.0 0.00 0.00 0.00 97 1015.1
20260509111857 49 329 0.0 0.0 0.00 0.00 0.00 97 1015.1
20260509111354 49 329 0.0 0.0 0.00 0.00 0.00 97 1015.1
20260509110852 49 329 0.0 0.0 0.00 0.00 0.00 97 1015.0
20260509110348 49 329 0.0 0.0 0.00 0.00 0.00 97 1015.0
20260509105846 49 329 0.0 0.0 0.00 0.00 0.00 96 1015.1
20260509105344 49 329 0.0 0.0 0.00 0.00 0.00 97 1015.1
20260509104840 49 329 0.0 0.0 0.00 0.00 0.00 97 1015.0
20260509104337 49 329 0.0 0.0 0.00 0.00 0.00 97 1015.0
20260509103835 49 329 0.0 0.0 0.00 0.00 0.00 97 1015.0
20260509103332 49 329 0.0 0.0 0.00 0.00 0.00 97 1015.1
20260509102831 49 329 0.0 0.0 0.00 0.00 0.00 97 1015.1
20260509102328 49 329 0.0 0.0 0.00 0.00 0.00 97 1015.1
20260509101823 49 329 0.0 0.0 0.00 0.00 0.00 97 1015.2
20260509101320 49 329 0.0 0.0 0.00 0.00 0.00 97 1015.2
20260509100818 49 329 0.0 0.0 0.00 0.00 0.00 97 1015.1
20260509100315 49 329 0.0 0.0 0.00 0.00 0.00 97 1015.1
20260509095812 49 329 0.0 0.0 0.00 0.00 0.00 97 1015.2
20260509095309 49 329 0.0 0.0 0.00 0.00 0.00 97 1015.2
20260509094806 49 329 0.0 0.0 0.00 0.00 0.00 97 1015.2
20260509094303 49 329 0.0 0.0 0.00 0.00 0.00 97 1015.2
20260509093801 49 329 0.0 0.0 0.00 0.00 0.00 97 1015.2
20260509093257 49 329 0.0 0.0 0.00 0.00 0.00 97 1015.3
20260509092755 49 329 0.0 0.0 0.00 0.00 0.00 96 1015.3
20260509092253 49 329 0.0 0.0 0.00 0.00 0.00 96 1015.5
20260509091751 49 329 0.0 0.0 0.00 0.00 0.00 97 1015.4
20260509091247 49 329 0.0 0.0 0.00 0.00 0.00 97 1015.4
20260509090744 49 329 0.0 0.0 0.00 0.00 0.00 97 1015.4
20260509090241 49 329 0.0 0.0 0.00 0.00 0.00 96 1015.4
20260509085739 50 329 0.0 0.0 0.00 0.00 0.00 96 1015.4
20260509085237 50 329 0.0 0.0 0.00 0.00 0.00 96 1015.5
20260509084733 50 301 0.0 0.0 0.00 0.00 0.00 96 1015.6
20260509084229 50 286 0.0 0.0 0.00 0.00 0.00 96 1015.6
20260509083728 50 340 0.0 0.0 0.00 0.00 0.00 96 1015.7
20260509083224 50 340 0.0 0.0 0.00 0.00 0.00 96 1015.6
20260509082720 50 340 0.0 0.0 0.00 0.00 0.00 96 1015.6
20260509082217 50 340 0.0 0.0 0.00 0.00 0.00 96 1015.5
20260509081714 50 340 0.0 0.0 0.00 0.00 0.00 96 1015.5
20260509081211 50 340 0.0 0.0 0.00 0.00 0.00 96 1015.6
20260509080710 50 340 0.0 0.0 0.00 0.00 0.00 96 1015.6
20260509080208 50 340 0.0 0.0 0.00 0.00 0.00 96 1015.7
20260509075706 50 340 0.0 0.0 0.00 0.00 0.00 96 1015.7
20260509075203 50 340 0.0 0.0 0.00 0.00 0.00 96 1015.7
20260509074659 50 340 0.0 0.0 0.00 0.00 0.00 97 1015.7
20260509074156 50 340 0.0 0.0 0.00 0.00 0.00 97 1015.7
20260509073653 50 340 0.0 0.0 0.00 0.00 0.00 97 1015.8
20260509073149 50 340 0.0 0.0 0.00 0.00 0.00 96 1015.9
20260509072646 50 340 0.0 0.0 0.00 0.00 0.00 97 1015.8
20260509072143 50 340 0.0 0.0 0.00 0.00 0.00 97 1015.8
20260509071639 50 340 0.0 0.0 0.00 0.00 0.00 97 1015.8
20260509071137 50 340 0.0 0.0 0.00 0.00 0.00 96 1015.9
20260509070633 50 341 0.0 0.0 0.00 0.00 0.00 96 1015.8
20260509070130 50 341 0.0 0.0 0.00 0.00 0.00 96 1015.9
20260509065625 50 341 0.0 0.0 0.00 0.00 0.00 96 1015.9
20260509065122 50 341 0.0 0.0 0.00 0.00 0.00 96 1015.9
20260509064619 50 341 0.0 0.0 0.00 0.00 0.00 96 1015.9
20260509064117 50 341 0.0 0.0 0.00 0.00 0.00 96 1015.9
20260509063614 50 341 0.0 0.0 0.00 0.00 0.00 96 1016.0
20260509063110 50 341 0.0 0.0 0.00 0.00 0.00 96 1016.0
20260509062607 50 341 0.0 0.0 0.00 0.00 0.00 96 1016.2
20260509062105 50 341 0.0 0.0 0.00 0.00 0.00 96 1016.0
20260509061601 51 341 0.0 0.0 0.00 0.00 0.00 96 1016.1
20260509061059 50 341 0.0 0.0 0.00 0.00 0.00 96 1016.0
20260509060556 51 341 0.0 0.0 0.00 0.00 0.00 95 1016.2
20260509060052 51 341 0.0 0.0 0.00 0.00 0.00 95 1016.3
20260509055547 51 341 0.0 0.0 0.00 0.00 0.00 95 1016.1
20260509055044 51 341 0.0 0.0 0.00 0.00 0.00 95 1016.3
20260509054540 51 341 0.0 0.0 0.00 0.00 0.00 95 1016.3
20260509054038 51 341 0.0 0.0 0.00 0.00 0.00 95 1016.3
20260509053537 51 341 0.0 0.0 0.00 0.00 0.00 95 1016.4
20260509053033 51 341 0.0 0.0 0.00 0.00 0.00 95 1016.4
20260509052531 51 341 0.0 0.0 0.00 0.00 0.00 95 1016.3
20260509052029 51 341 0.0 0.0 0.00 0.00 0.00 95 1016.3
20260509051521 51 341 0.0 0.0 0.00 0.00 0.00 94 1016.5
20260509051018 51 341 0.0 0.0 0.00 0.00 0.00 94 1016.2
20260509050514 51 341 0.0 0.0 0.00 0.00 0.00 94 1016.3
20260509050011 52 341 0.0 0.0 0.00 0.00 0.00 94 1015.9
20260509045508 52 341 0.0 0.0 0.00 0.00 0.00 93 1016.1
20260509045005 52 341 0.0 0.0 0.00 0.00 0.00 93 1016.1
20260509044503 52 341 0.0 0.0 0.00 0.00 0.00 93 1016.0
20260509044000 52 341 0.0 0.0 0.00 0.00 0.00 93 1016.0
20260509043455 52 341 0.0 0.0 0.00 0.00 0.00 93 1016.1
20260509042951 52 341 0.0 0.0 0.00 0.00 0.00 93 1016.0
20260509042448 52 341 0.0 0.0 0.00 0.00 0.00 92 1015.8
20260509041944 52 341 0.0 0.0 0.00 0.00 0.00 92 1015.9
20260509041441 52 311 0.0 0.0 0.00 0.00 0.00 92 1015.9
20260509040939 53 283 0.0 0.0 0.00 0.00 0.00 92 1016.0
20260509040437 53 283 0.0 0.0 0.00 0.00 0.00 91 1015.8
20260509035933 53 283 0.0 0.0 0.00 0.00 0.00 91 1015.8
20260509035430 53 293 0.0 0.0 0.00 0.00 0.00 91 1015.9
20260509034927 53 241 0.0 0.0 0.00 0.00 0.00 90 1015.8
20260509034425 53 289 0.0 0.0 0.00 0.00 0.00 90 1015.9
20260509033922 54 245 0.0 0.0 0.00 0.00 0.00 89 1015.8
20260509033419 54 246 0.0 0.0 0.00 0.00 0.00 89 1015.8
20260509032915 55 268 0.0 0.0 0.00 0.00 0.00 88 1015.7
20260509032413 55 242 0.0 0.0 0.00 0.00 0.00 88 1015.7
20260509031911 55 247 0.0 0.0 0.00 0.00 0.00 87 1015.7
20260509031408 56 247 0.0 0.0 0.00 0.00 0.00 86 1015.6